[Iaude] MPEC M99: 2024 MV [a=1.41,e=0.32,i=6.0,H=26.8]

mpec at cfa.harvard.edu mpec at cfa.harvard.edu
Thu Jun 27 23:27:42 EDT 2024


M.P.E.C. 2024-M99                                 Issued 2024 June 28, 03:26 UT

     The Minor Planet Electronic Circulars contain information on unusual
         minor planets, routine data on comets and natural satellites,
         and occasional editorial announcements.  They are published
    on behalf of Division F of the International Astronomical Union by the
          Minor Planet Center, Smithsonian Astrophysical Observatory,
                          Cambridge, MA 02138, U.S.A.
			  
             Prepared using the Tamkin Foundation Computer Network

                              MPC at CFA.HARVARD.EDU
            URL https://www.minorplanetcenter.net/    ISSN 1523-6714

                                    2024 MV                                     


Observations:
     K24M00V* C2024 06 27.47534619 07 42.386+06 56 50.21         17.70oVEM099T05
     K24M00V  C2024 06 27.51425819 08 29.534+06 58 48.14         18.40oVEM099T05
     K24M00V  C2024 06 27.51742419 08 33.302+06 58 57.32         18.45oVEM099T05
     K24M00V  C2024 06 27.53529219 08 54.737+06 59 46.79         18.47oVEM099T05
     K24M00V KB2024 06 27.89611 19 17 23.43 +07 10 45.3          18.1 RZEM099106
     K24M00V KB2024 06 27.89965 19 17 26.89 +07 10 54.2          18.1 RZEM099106
     K24M00V KB2024 06 27.90320 19 17 30.32 +07 11 03.4          17.7 RZEM099106
     K24M00V KB2024 06 27.90709 19 17 34.06 +07 11 13.2          17.7 RZEM099106
     K24M00V KC2024 06 27.92537 19 17 53.63 +07 12 15.2          17.4 GVEM099104
     K24M00V KC2024 06 27.93348 19 18 01.17 +07 12 34.9          17.9 GVEM099104
     K24M00V IC2024 06 27.93352419 17 59.42 +07 12 24.4          19.7 GVEM099L01
     K24M00V IC2024 06 27.93500619 18 00.79 +07 12 27.7          18.7 GVEM099L01
     K24M00V IC2024 06 27.93648819 18 02.15 +07 12 31.9          19.1 GVEM099L01
     K24M00V KC2024 06 27.93661 19 18 04.03 +07 12 45.5          18.0 GXEM099K83
     K24M00V IC2024 06 27.93796919 18 03.51 +07 12 36.0          18.8 GVEM099L01
     K24M00V IC2024 06 27.93945019 18 04.87 +07 12 38.9          19.3 GVEM099L01
     K24M00V KC2024 06 27.94149 19 18 08.62 +07 12 54.1                VEM099104
     K24M00V KC2024 06 27.94224 19 18 09.21 +07 12 58.5          17.6 GXEM099K83
     K24M00V KC2024 06 27.97092619 18 39.953+07 12 53.28         18.4 GVEM099J95
     K24M00V KC2024 06 27.97491619 18 43.663+07 13 01.88         18.5 GVEM099J95
     K24M00V KC2024 06 27.97756719 18 46.094+07 13 08.54         18.9 GVEM099J95
     K24M00V KC2024 06 27.99260119 18 55.24 +07 14 38.3          18.4 GVEM099203
     K24M00V KC2024 06 27.99532219 18 57.74 +07 14 41.2                VEM099204
     K24M00V KC2024 06 28.00237119 19 03.94 +07 14 56.5                VEM099204
     K24M00V KC2024 06 28.00414519 19 05.37 +07 15 02.9                VEM099203
     K24M00V KC2024 06 28.01061719 19 11.11 +07 15 14.4          18.6 GVEM099204
     K24M00V KC2024 06 28.01796519 19 17.34 +07 15 32.9          18.9 GVEM099203
     K24M00V KB2024 06 28.05690219 20 24.565+07 28 28.03         20.3 VZEM099Y05
     K24M00V KB2024 06 28.06606119 20 31.986+07 28 47.70         19.5 VZEM099Y05
     K24M00V KB2024 06 28.07511519 20 39.216+07 29 06.63         19.5 VZEM099Y05

Observer details:
104 San Marcello Pistoiese.  Observers P. Bacci, M. Maestripieri.  Measurer P.
    Bacci.  0.60-m f/4 reflector + CCD.
106 Crni Vrh.  Observer H. Mikuz.  0.60-m f/3.3 reflector + CMO.
203 GiaGa Observatory.  Observer G. Galli.  0.36-m f/5.76 Schmidt-Cassegrain +
    CCD.
204 Schiaparelli Observatory.  Observer L. Buzzi.  0.84-m f/3.5 reflector +
    CMO.
J95 Great Shefford.  Observer P. Birtwhistle.  0.41-m f/6.3 Schmidt-Cassegrain
    + CCD.
K83 Beppe Forti Astronomical Observatory, Montelupo.  Observers M. Tombelli,
    M. Iozzi, F. Cheli, M. Lombardo, L. Bartolini, S. Bartolini.  Measurers M.
    Tombelli, F. Bernardi.  0.40-m f/8 Ritchey-Chretien + CCD.
L01 Visnjan Observatory, Tican.  Observer K. Korlevic.  1.0-m f/2.9 reflector
    + CCD.
T05 ATLAS-HKO, Haleakala.  Observers L. Denneau, R. Siverd, J. Tonry, H.
    Weiland.  Measurers L. Denneau, N. Erasmus, A. Fitzsimmons, J. Robinson,
    R. Siverd, J. Tonry, H. Weiland.  0.5-m Reflector + CCD.
Y05 SONEAR Wykrota-CEAMIG, Serra da Piedade.  Observers C. Jacques, A.
    Caetano, E. Pimentel.  Measurer C. Jacques.  0.45-m f/2.9 reflector + CMO.

Orbital elements:
2024 MV                                                  Earth MOID = 0.0005 AU
Epoch 2024 Mar. 31.0 TT = JDT 2460400.5                 Veres                   
M 329.64254              (2000.0)            P               Q                  
n   0.58570321     Peri.  320.70236     -0.58497326     +0.80430009             
a   1.4147650      Node   273.25108     -0.71528519     -0.57230748             
e   0.3204563      Incl.    6.00458     -0.38232628     -0.15989218             
P   1.68           H   26.83          G   0.15           U   7                  
Residuals in seconds of arc
240627 T05  0.5-  0.4-    240627 L01  0.3+  0.3-    240627 J95  0.3-  0.1+
240627 T05  0.5+  0.5+    240627 L01  0.3+  0.6-    240627 203  0.1-  0.1+
240627 T05  0.0   0.5+    240627 L01  0.1+  0.0     240627 204  0.1-  0.2+
240627 T05  0.3+  0.4-    240627 K83  0.1-  0.0     240628 204  0.3+  0.0
240627 106  0.1-  0.1-    240627 L01  0.0   0.5+    240628 203  0.2+  0.6-
240627 106  0.1+  0.3-    240627 L01  0.2-  0.1-    240628 204  0.0   0.0
240627 106  0.1-  0.1-    240627 104  0.4+  0.1-    240628 203  0.2-  0.3-
240627 106  0.3-  0.2-    240627 K83  0.1-  0.6-    240628 Y05  0.5+  0.3+
240627 104  0.1+  0.4+    240627 J95  0.3-  0.5+    240628 Y05  0.2+  0.3+
240627 104  0.3-  0.1+    240627 J95  0.1-  0.3-    240628 Y05  0.2+  0.1+

Ephemeris:
2024 MV                  a,e,i = 1.41, 0.32, 6                   q = 0.9614
Date    TT    R. A. (2000) Decl.     Delta      r    Elong.  Phase     V
2024 05 29    08 04 53.0 -07 12 17   0.1139  0.9640    61.3   112.7    26.4
...
2024 06 13    08 20 24.7 -08 42 30   0.05086 0.9860    53.3   124.3    25.5
...
2024 06 21    08 50 31.6 -09 37 38   0.01724 1.0060    53.4   125.8    23.3
...
2024 06 27    18 52 59.6 +06 29 26   0.0089961.0243   149.4    30.4    18.0
2024 06 28    19 18 58.5 +07 21 48   0.01304 1.0275   146.9    32.7    18.8
2024 06 29    19 32 33.3 +07 46 07   0.01718 1.0308   145.7    33.8    19.5
...
2024 07 05    19 57 03.7 +08 12 02   0.04246 1.0521   145.7    33.0    21.5
...
2024 07 13    20 03 10.3 +07 39 03   0.07711 1.0836   149.4    28.5    22.7
...
2024 07 28    20 05 28.2 +05 33 29   0.1472  1.1503   154.7    22.1    24.0

M. P. C. Staff               (C) Copyright 2024 MPC           M.P.E.C. 2024-M99





More information about the Iaude mailing list